FW9333 Weather Reports


time (UTC)temp
C
wind
direction
speed
KPH
gust
KPH
rain 1hr
cm
rain 24hr
cm
rain mn
cm
humidity
%
barometer
mb
20260505034548 15 23 0.0 0.0 0.00 0.00 0.00 77 1007.6
20260505033039 15 23 0.0 0.0 0.00 0.00 0.00 77 1007.6
20260505031537 15 23 0.0 0.0 0.00 0.00 0.00 77 1007.7
20260505030045 15 23 0.0 0.0 0.00 0.00 0.00 76 1007.8
20260505024536 15 23 0.0 0.0 0.00 0.00 0.00 75 1007.8
20260505023042 15 23 0.0 0.0 0.00 0.00 0.00 74 1007.9
20260505021534 16 23 0.0 0.0 0.00 0.00 0.00 73 1008.0
20260505020040 16 23 0.0 1.6 0.00 0.00 0.00 73 1008.1
20260505014539 16 23 0.0 1.6 0.00 0.00 0.00 73 1008.2
20260505013038 16 23 0.0 1.6 0.00 0.00 0.00 73 1008.1
20260505011532 16 24 0.0 0.0 0.00 0.00 0.00 73 1007.9
20260505010034 17 24 0.0 0.0 0.00 0.00 0.00 72 1007.8
20260505004554 17 24 0.0 3.2 0.00 0.00 0.00 71 1007.7
20260505003031 17 64 0.0 0.0 0.00 0.00 0.00 70 1007.6
20260505001536 17 64 0.0 0.0 0.00 0.00 0.00 70 1007.5
20260505000036 18 64 0.0 0.0 0.00 0.00 0.00 68 1007.5
20260504234530 18 64 0.0 0.0 0.00 0.00 0.00 67 1007.6
20260504233029 18 64 0.0 4.8 0.00 0.00 0.00 66 1007.4
20260504231528 19 186 0.0 11.3 0.00 0.00 0.00 65 1007.3
20260504230029 20 67 0.0 3.2 0.00 0.00 0.00 63 1007.3
20260504224534 20 236 1.6 8.0 0.00 0.00 0.00 59 1007.5
20260504223028 20 135 0.0 6.4 0.00 0.00 0.00 59 1007.7
20260504221536 21 120 1.6 12.9 0.00 0.00 0.00 57 1007.6
20260504220027 21 223 0.0 8.0 0.00 0.00 0.00 57 1007.3
20260504214526 21 176 1.6 12.9 0.00 0.00 0.00 56 1007.2
20260504213035 21 150 0.0 1.6 0.00 0.00 0.00 57 1007.2
20260504211532 21 234 0.0 12.9 0.00 0.00 0.00 56 1007.4
20260504210025 21 86 0.0 4.8 0.00 0.00 0.00 57 1007.3
20260504204523 21 171 0.0 4.8 0.00 0.00 0.00 54 1007.3
20260504203022 21 101 0.0 4.8 0.00 0.00 0.00 54 1007.4
20260504201523 21 188 1.6 16.1 0.00 0.00 0.00 54 1007.5
20260504200021 21 92 1.6 8.0 0.00 0.00 0.00 53 1007.5
20260504194523 22 97 3.2 11.3 0.00 0.00 0.00 50 1007.6
20260504193019 22 146 0.0 8.0 0.00 0.00 0.00 53 1007.7
20260504191517 22 46 3.2 9.7 0.00 0.00 0.00 51 1008.0
20260504190019 21 163 1.6 20.9 0.00 0.00 0.00 54 1008.2
20260504184529 21 184 3.2 12.9 0.00 0.00 0.00 52 1008.4
20260504183012 21 186 1.6 12.9 0.00 0.00 0.00 54 1008.6
20260504181511 21 154 1.6 17.7 0.00 0.00 0.00 53 1008.7
20260504180010 21 73 3.2 12.9 0.00 0.00 0.00 53 1008.8
20260504174508 21 146 3.2 9.7 0.00 0.00 0.00 53 1008.8
20260504173013 21 306 3.2 9.7 0.00 0.00 0.00 53 1009.2
20260504171504 21 91 0.0 11.3 0.00 0.00 0.00 51 1009.3
20260504081538 8 76 0.0 0.0 0.00 0.00 0.00 76 1013.4
20260504044529 7 76 0.0 0.0 0.00 0.00 0.00 73 1014.5
20260504043022 7 76 0.0 0.0 0.00 0.00 0.00 72 1014.5
20260504041520 7 76 0.0 0.0 0.00 0.00 0.00 69 1014.4
20260504040018 7 76 0.0 0.0 0.00 0.00 0.00 67 1014.4